LU3GHF-13 Weather Reports


Display with metric or nautical units.
time (UTC)temp
F
wind
direction
speed
MPH
gust
MPH
rain 1hr
in
rain 24hr
in
rain mn
in
humidity
%
barometer
mb
20260509101430 58 0.0 0.0 0.00 0.00 0.00 58 1014.6
20260509100419 57 0.0 0.0 0.00 0.00 0.00 60 1014.4
20260509095415 58 0.0 0.0 0.00 0.00 0.00 62 1014.1
20260509094337 58 0.0 0.0 0.00 0.00 0.00 61 1013.6
20260509093238 58 0.0 0.0 0.00 0.00 0.00 61 1013.3
20260509092144 58 0.0 0.0 0.00 0.00 0.00 60 1013.0
20260509091102 58 0.0 0.0 0.00 0.00 0.00 60 1012.7
20260509090030 58 0.0 0.0 0.00 0.00 0.00 60 1012.4
20260509085021 58 0.0 0.0 0.00 0.00 0.00 59 1012.2
20260509082920 58 0.0 0.0 0.00 0.00 0.00 60 1011.9
20260509081847 58 0.0 0.0 0.00 0.00 0.00 60 1011.6
20260509080758 58 0.0 0.0 0.00 0.00 0.00 59 1011.4
20260509075722 58 0.0 0.0 0.00 0.00 0.00 58 1011.3
20260509074717 58 0.0 0.0 0.00 0.00 0.00 57 1011.3
20260509073659 58 0.0 0.0 0.00 0.00 0.00 57 1011.1
20260509072639 58 0.0 0.0 0.00 0.00 0.00 57 1011.1
20260509071618 59 0.0 0.0 0.00 0.00 0.00 57 1011.0
20260509065534 58 0.0 0.0 0.00 0.00 0.00 57 1010.7
20260509064522 59 0.0 0.0 0.00 0.00 0.00 56 1010.6
20260509063444 59 0.0 0.0 0.00 0.00 0.00 57 1010.7
20260509062418 59 0.0 0.0 0.00 0.00 0.00 58 1010.7
20260509061321 59 0.0 0.0 0.00 0.00 0.00 56 1010.6
20260509060236 58 0.0 0.0 0.00 0.00 0.00 59 1010.8
20260509055155 59 0.0 0.0 0.00 0.00 0.00 59 1010.6
20260509054057 59 0.0 0.0 0.00 0.00 0.00 59 1010.6
20260509053009 59 0.0 0.0 0.00 0.00 0.00 60 1010.7
20260509050858 58 0.0 0.0 0.00 0.00 0.00 61 1010.7
20260509045832 58 0.0 0.0 0.00 0.00 0.00 61 1010.6
20260509044743 58 0.0 0.0 0.00 0.00 0.00 63 1010.5
20260509043655 58 0.0 0.0 0.00 0.00 0.00 64 1010.6
20260509042607 58 0.0 0.0 0.00 0.00 0.00 64 1010.7
20260509041537 59 0.0 0.0 0.00 0.00 0.00 62 1010.8
20260509040442 58 0.0 0.0 0.00 0.00 0.00 61 1010.9
20260509035359 58 0.0 0.0 0.00 0.00 0.00 59 1010.5
20260509034342 58 0.0 0.0 0.00 0.00 0.00 61 1010.5
20260509033300 59 0.0 0.0 0.00 0.00 0.00 61 1010.8
20260509032255 58 0.0 0.0 0.00 0.00 0.00 61 1011.0
20260509031158 59 0.0 0.0 0.00 0.00 0.00 60 1010.8
20260509025041 59 0.0 0.0 0.00 0.00 0.00 58 1010.7
20260509024010 59 0.0 0.0 0.00 0.00 0.00 57 1010.1
20260509022936 59 0.0 0.0 0.00 0.00 0.00 57 1010.2
20260509021909 59 0.0 0.0 0.00 0.00 0.00 56 1010.2
20260509020855 59 0.0 0.0 0.00 0.00 0.00 55 1009.8
20260509015836 59 0.0 0.0 0.00 0.00 0.00 55 1009.8
20260508233244 62 0.0 0.0 0.00 0.00 0.00 52 1008.1
20260508232209 63 0.0 0.0 0.00 0.00 0.00 50 1007.9
20260508225012 63 0.0 0.0 0.00 0.00 0.00 47 1007.6
20260508222917 63 0.0 0.0 0.00 0.00 0.00 47 1006.9
20260508215722 64 0.0 0.0 0.00 0.00 0.00 44 1006.5
20260508211619 64 0.0 0.0 0.00 0.00 0.00 40 1006.9
20260508210609 65 0.0 0.0 0.00 0.00 0.00 40 1006.9
20260508205513 65 0.0 0.0 0.00 0.00 0.00 39 1006.7
20260508204437 66 0.0 0.0 0.00 0.00 0.00 39 1006.7
20260508203401 66 0.0 0.0 0.00 0.00 0.00 39 1006.6
20260508202312 66 0.0 0.0 0.00 0.00 0.00 39 1006.6
20260508200244 66 0.0 0.0 0.00 0.00 0.00 40 1006.7
20260508194132 67 0.0 0.0 0.00 0.00 0.00 41 1006.5
20260508192007 68 0.0 0.0 0.00 0.00 0.00 38 1006.5
20260508185822 70 0.0 0.0 0.00 0.00 0.00 36 1006.7
20260508184819 73 0.0 0.0 0.00 0.00 0.00 32 1006.6
20260508183746 75 0.0 0.0 0.00 0.00 0.00 31 1006.7
20260508182700 74 0.0 0.0 0.00 0.00 0.00 33
20260508181650 74 0.0 0.0 0.00 0.00 0.00 36
20260508180610 69 0.0 0.0 0.00 0.00 0.00 39 1006.9
20260508175554 69 0.0 0.0 0.00 0.00 0.00 38 1006.9
20260508174526 70 0.0 0.0 0.00 0.00 0.00 36
20260508173434 70 0.0 0.0 0.00 0.00 0.00 37
20260508172420 69 0.0 0.0 0.00 0.00 0.00 37 1007.6
20260508170313 69 0.0 0.0 0.00 0.00 0.00 36 1007.9
20260508165241 68 0.0 0.0 0.00 0.00 0.00 34 1008.2
20260508164157 70 0.0 0.0 0.00 0.00 0.00 34 1008.0
20260508162057 70 0.0 0.0 0.00 0.00 0.00 30
20260508154851 69 0.0 0.0 0.00 0.00 0.00 36 1009.2
20260508152725 69 0.0 0.0 0.00 0.00 0.00 39
20260508151702 69 0.0 0.0 0.00 0.00 0.00 40 1009.4
20260508150654 67 0.0 0.0 0.00 0.00 0.00 44
20260508144630 66 0.0 0.0 0.00 0.00 0.00 44 1010.0
20260508143552 66 0.0 0.0 0.00 0.00 0.00 48 1010.0
20260508141505 63 0.0 0.0 0.00 0.00 0.00 60 1010.6
20260508140422 63 0.0 0.0 0.00 0.00 0.00 63
20260508134238 62 0.0 0.0 0.00 0.00 0.00 66 1010.8
20260508133216 62 0.0 0.0 0.00 0.00 0.00 67 1011.0
20260508132135 62 0.0 0.0 0.00 0.00 0.00 70 1010.8
20260508131042 61 0.0 0.0 0.00 0.00 0.00 72 1010.9
20260508130007 60 0.0 0.0 0.00 0.00 0.00 73 1010.9
20260508124915 60 0.0 0.0 0.00 0.00 0.00 75 1010.8
20260508111428 55 0.0 0.0 0.00 0.00 0.00 86 1010.4
20260508110405 54 0.0 0.0 0.00 0.00 0.00 87 1010.2
20260508105338 54 0.0 0.0 0.00 0.00 0.00 86
20260508104244 55 0.0 0.0 0.00 0.00 0.00 86 1009.9
20260508103152 55 0.0 0.0 0.00 0.00 0.00 86 1009.8